Flag for Brunei Weather past 2 weeks in Bandar Seri Begawan, Brunei

Now
75 °F

Passing clouds.


Feels Like: 73 °F
Forecast: 76 / 90 °F
Wind: 2 mph from Southwest

Location: Brunei Airport

Current Time: Jul 29, 2014 at 6:36:14 AM

Latest Report: Jul 29, 2014 at 6:00 AM


Visibility: 4 mi

Pressure: 29.80 "Hg

Humidity: 100%

Dew point: 75 °F

Location of Bandar Seri BegawanLocation

Historic Weather in Bandar Seri Begawan — Graph

°F

Bandar Seri Begawan temperature yesterday

Maximum temperature yesterday: 90 °F (at 12:00 PM)
Minimum temperature yesterday: 75 °F (at 1:30 PM)
Average temperature yesterday: 78 °F

Past Weeks' High & Low Weather Summary

 TemperatureHumidityPressure
High91 °F (Jul 21, 1:00 PM)100% (Jul 14, 7:00 AM)29.92 "Hg (Jul 14, 7:00 AM)
Low73 °F (Jul 14, 7:00 AM)55% (Jul 24, 11:30 AM)29.71 "Hg (Jul 22, 3:00 PM)
Average82 °F83%29.83 "Hg
* Reported Jul 14 5:00 AM — Jul 29 5:30 AM, Bandar Seri Begawan, Weather by CustomWeather, © 2014

Note: Actual official high and low records may vary slightly from our data, if they occured in-between our weather recording intervals... More about our weather records

Advertising

Bandar Seri Begawan weather history for previous 24 hours

 ConditionsComfort  
Time TempWeatherWind HumidityBarometerVisibility
5:30 AM
Jul 29
75 °FPassing clouds.2 mph100%29.80 "Hg4 mi
5:00 AM77 °FPassing clouds.2 mph94%29.80 "Hg4 mi
4:30 AM77 °FPassing clouds.2 mph94%29.80 "Hg4 mi
4:00 AM77 °FPassing clouds.2 mph94%29.80 "Hg4 mi
3:30 AM77 °FPassing clouds.5 mph94%29.80 "Hg4 mi
3:00 AM77 °FPassing clouds.1 mph94%29.80 "Hg4 mi
2:30 AM77 °FPassing clouds.2 mph94%29.80 "Hg4 mi
2:00 AM77 °FPassing clouds.3 mph94%29.80 "Hg4 mi
1:30 AM77 °FPassing clouds.1 mph94%29.80 "Hg4 mi
1:00 AM77 °FPassing clouds.1 mph94%29.83 "Hg4 mi
12:30 AM77 °FPassing clouds.1 mph94%29.83 "Hg4 mi
12:00 AM75 °FPartly cloudy.1 mph100%29.83 "Hg4 mi
11:30 PM
Jul 28
75 °FPartly cloudy.3 mph100%29.83 "Hg4 mi
11:00 PM77 °FPassing clouds.1 mph94%29.83 "Hg4 mi
10:30 PM77 °FPassing clouds.1 mph94%29.83 "Hg4 mi
10:00 PM75 °FPassing clouds.2 mph100%29.83 "Hg4 mi
9:30 PM75 °FPassing clouds.2 mph100%29.80 "Hg6 mi
9:00 PM75 °FPassing clouds.1 mph94%29.80 "Hg6 mi
8:30 PM75 °FPassing clouds.1 mph94%29.80 "Hg6 mi
8:00 PM75 °FPassing clouds.1 mph94%29.80 "Hg6 mi
7:30 PM75 °FPassing clouds.2 mph94%29.77 "Hg6 mi
7:00 PM75 °FPartly cloudy.3 mph94%29.77 "Hg5 mi
6:30 PM75 °FSprinkles. Broken clouds.2 mph89%29.77 "Hg5 mi
6:00 PM77 °FScattered showers. Broken clouds.8 mph83%29.80 "Hg5 mi
5:30 PM79 °FPartly sunny.5 mph94%29.77 "Hg5 mi
5:00 PM79 °FPartly sunny.7 mph89%29.77 "Hg5 mi
4:30 PM79 °FPartly sunny.8 mph89%29.80 "Hg5 mi
4:00 PM77 °FPartly sunny.8 mph94%29.77 "Hg5 mi
3:30 PM77 °FLight rain. Partly sunny.6 mph94%29.77 "Hg5 mi
3:00 PM77 °FLight rain. Partly sunny.6 mph94%29.80 "Hg4 mi
2:30 PM75 °FThunderstorms. Partly sunny.6 mph100%29.80 "Hg4 mi
2:00 PM75 °FThunderstorms. Partly sunny.10 mph100%29.83 "Hg4 mi
1:30 PM75 °FThunderstorms. Partly sunny.12 mph100%29.83 "Hg2 mi
1:00 PM81 °FThunderstorms. Broken clouds.24 mph79%29.86 "Hg2 mi
12:30 PM88 °FScattered showers. Broken clouds.10 mph70%29.83 "Hg3 mi
12:00 PM90 °FPartly sunny.8 mph67%29.83 "Hg3 mi
11:30 AM88 °FPartly sunny.7 mph70%29.83 "Hg3 mi
10:30 AM86 °FBroken clouds.5 mph75%29.86 "Hg3 mi
10:00 AM84 °FPartly sunny.6 mph79%29.86 "Hg3 mi
9:30 AM84 °FPartly sunny.7 mph79%29.86 "Hg3 mi
9:00 AM82 °FBroken clouds.6 mph84%29.86 "Hg4 mi
8:30 AM81 °FBroken clouds.3 mph89%29.86 "Hg4 mi
8:00 AM79 °FBroken clouds.5 mph94%29.86 "Hg4 mi
7:30 AM77 °FPartly sunny.5 mph94%29.86 "Hg4 mi
7:00 AM77 °FPartly sunny.3 mph94%29.86 "Hg4 mi
6:30 AM77 °FPartly sunny.3 mph94%29.83 "Hg4 mi
6:00 AM77 °FPartly cloudy.3 mph94%29.83 "Hg4 mi
Weather by CustomWeather, © 2014

See weather overviewHow to use our weather pages